Вернуться в каталог

ARIANE 5 R/B

АктивенHEO
NORAD 36832·ROCKET BODY·🇫🇷 France

Запущен Aug 4, 2010 с Guiana Space Centre

Loading…

Ближайшие Пролёты (ближайшие 24 часа)

TLE

СвежийSource: Space-Track

Эпоха: Sep 14, 2026, 06:58 UTC

1 36832U 10037C   26257.29029501  .00001058  00000-0  41384-3 0  9990
2 36832   2.5238 296.4567 6985067 113.8399 330.3283  2.65177906144563

Отслеживайте ARIANE 5 R/B в реальном времени с AllMySat

Download on the App Store